| time (UTC) | temp F | wind direction | speed MPH | gust MPH | rain 1hr in | rain 24hr in | rain mn in | humidity % | barometer mb |
| 20260503190033 | 74 | 196 | 6.0 | 11.0 | 0.00 | 0.00 | 0.00 | 51 | 1014.6 |
| 20260503184531 | 73 | 204 | 6.0 | 11.0 | 0.00 | 0.00 | 0.00 | 50 | 1014.7 |
| 20260503183028 | 73 | 237 | 8.0 | 15.0 | 0.00 | 0.00 | 0.00 | 49 | 1014.9 |
| 20260503181526 | 73 | 269 | 6.0 | 17.0 | 0.00 | 0.00 | 0.00 | 49 | 1015.1 |
| 20260503180026 | 72 | 209 | 8.0 | 16.0 | 0.00 | 0.00 | 0.00 | 49 | 1015.4 |
| 20260503174528 | 72 | 241 | 8.0 | 19.0 | 0.00 | 0.00 | 0.00 | 48 | 1015.7 |
| 20260503173023 | 71 | 205 | 6.0 | 19.0 | 0.00 | 0.00 | 0.00 | 50 | 1015.8 |
| 20260503171522 | 70 | 209 | 9.0 | 14.0 | 0.00 | 0.00 | 0.00 | 49 | 1016.0 |
| 20260503100111 | 40 | 271 | 1.0 | 3.0 | 0.00 | 0.00 | 0.00 | 90 | 1017.9 |
| 20260503090105 | 41 | 339 | 1.0 | 2.0 | 0.00 | 0.00 | 0.00 | 90 | 1017.9 |
| 20260503081552 | 41 | 338 | 1.0 | 2.0 | 0.00 | 0.00 | 0.00 | 90 | 1018.3 |
| 20260503071541 | 42 | 338 | 0.0 | 0.0 | 0.00 | 0.00 | 0.00 | 90 | 1018.6 |
| 20260503054539 | 43 | 338 | 0.0 | 0.0 | 0.00 | 0.00 | 0.00 | 85 | 1019.2 |
| 20260503053031 | 44 | 338 | 0.0 | 2.0 | 0.00 | 0.00 | 0.00 | 82 | 1019.2 |
| 20260503051531 | 44 | 338 | 0.0 | 0.0 | 0.00 | 0.00 | 0.00 | 81 | 1019.1 |
| 20260503050030 | 45 | 338 | 0.0 | 0.0 | 0.00 | 0.00 | 0.00 | 79 | 1019.0 |
| 20260503044536 | 46 | 338 | 0.0 | 0.0 | 0.00 | 0.00 | 0.00 | 79 | 1018.9 |
| 20260503043032 | 46 | 338 | 0.0 | 0.0 | 0.00 | 0.00 | 0.00 | 76 | 1018.9 |
| 20260503041531 | 47 | 338 | 0.0 | 0.0 | 0.00 | 0.00 | 0.00 | 73 | 1019.0 |
| 20260503040031 | 47 | 338 | 0.0 | 0.0 | 0.00 | 0.00 | 0.00 | 70 | 1018.9 |
| 20260503034530 | 48 | 338 | 0.0 | 0.0 | 0.00 | 0.00 | 0.00 | 67 | 1019.0 |
| 20260503033030 | 50 | 338 | 0.0 | 2.0 | 0.00 | 0.00 | 0.00 | 64 | 1019.0 |
| 20260503031527 | 52 | 338 | 0.0 | 1.0 | 0.00 | 0.00 | 0.00 | 59 | 1018.8 |
| 20260503030027 | 54 | 338 | 0.0 | 1.0 | 0.00 | 0.00 | 0.00 | 54 | 1018.7 |
| 20260503024526 | 54 | 338 | 1.0 | 3.0 | 0.00 | 0.00 | 0.00 | 51 | 1018.5 |
| 20260503023027 | 53 | 339 | 1.0 | 3.0 | 0.00 | 0.00 | 0.00 | 54 | 1018.5 |
| 20260503021526 | 54 | 339 | 0.0 | 2.0 | 0.00 | 0.00 | 0.00 | 55 | 1018.3 |
| 20260503020025 | 54 | 339 | 1.0 | 2.0 | 0.00 | 0.00 | 0.00 | 55 | 1018.2 |
| 20260503014525 | 55 | 340 | 1.0 | 2.0 | 0.00 | 0.00 | 0.00 | 54 | 1018.0 |
| 20260503013031 | 56 | 340 | 1.0 | 3.0 | 0.00 | 0.00 | 0.00 | 54 | 1017.9 |
| 20260503011531 | 58 | 340 | 1.0 | 3.0 | 0.00 | 0.00 | 0.00 | 50 | 1017.8 |
| 20260503010024 | 59 | 340 | 2.0 | 4.0 | 0.00 | 0.00 | 0.00 | 47 | 1017.7 |
| 20260503004523 | 61 | 302 | 2.0 | 5.0 | 0.00 | 0.00 | 0.00 | 44 | 1017.7 |
| 20260503003023 | 62 | 319 | 4.0 | 10.0 | 0.00 | 0.00 | 0.00 | 41 | 1017.7 |
| 20260503001523 | 63 | 297 | 4.0 | 9.0 | 0.00 | 0.00 | 0.00 | 39 | 1017.7 |
| 20260503000021 | 63 | 301 | 4.0 | 10.0 | 0.00 | 0.00 | 0.00 | 39 | 1017.7 |
| 20260502234521 | 64 | 311 | 4.0 | 11.0 | 0.00 | 0.00 | 0.00 | 38 | 1017.7 |
| 20260502233022 | 64 | 324 | 3.0 | 11.0 | 0.00 | 0.00 | 0.00 | 39 | 1017.7 |
| 20260502231521 | 65 | 322 | 5.0 | 14.0 | 0.00 | 0.00 | 0.00 | 37 | 1017.8 |
| 20260502230024 | 65 | 313 | 4.0 | 13.0 | 0.00 | 0.00 | 0.00 | 39 | 1017.8 |
| 20260502224520 | 64 | 300 | 7.0 | 14.0 | 0.00 | 0.00 | 0.00 | 38 | 1017.7 |
| 20260502223020 | 65 | 294 | 8.0 | 12.0 | 0.00 | 0.00 | 0.00 | 38 | 1017.7 |
| 20260502221519 | 65 | 313 | 4.0 | 13.0 | 0.00 | 0.00 | 0.00 | 37 | 1017.7 |
| 20260502220018 | 65 | 320 | 7.0 | 13.0 | 0.00 | 0.00 | 0.00 | 36 | 1017.8 |
| 20260502214531 | 65 | 316 | 7.0 | 18.0 | 0.00 | 0.00 | 0.00 | 38 | 1017.9 |
| 20260502213019 | 65 | 323 | 7.0 | 14.0 | 0.00 | 0.00 | 0.00 | 37 | 1018.0 |
| 20260502211525 | 66 | 316 | 4.0 | 11.0 | 0.00 | 0.00 | 0.00 | 38 | 1018.1 |
| 20260502210026 | 65 | 298 | 4.0 | 14.0 | 0.00 | 0.00 | 0.00 | 39 | 1018.2 |
| 20260502204518 | 65 | 332 | 3.0 | 17.0 | 0.00 | 0.00 | 0.00 | 39 | 1018.3 |
| 20260502203017 | 65 | 311 | 10.0 | 16.0 | 0.00 | 0.00 | 0.00 | 39 | 1018.5 |
| 20260502201519 | 65 | 289 | 7.0 | 13.0 | 0.00 | 0.00 | 0.00 | 39 | 1018.5 |
| 20260502200015 | 65 | 341 | 5.0 | 18.0 | 0.00 | 0.00 | 0.00 | 40 | 1018.7 |
| 20260502194514 | 65 | 302 | 6.0 | 15.0 | 0.00 | 0.00 | 0.00 | 41 | 1018.7 |
| 20260502193014 | 65 | 297 | 7.0 | 15.0 | 0.00 | 0.00 | 0.00 | 42 | 1018.7 |
| 20260502191513 | 64 | 326 | 11.0 | 19.0 | 0.00 | 0.00 | 0.00 | 39 | 1018.8 |